GalileoSat-34

operational
NORAD ID: 67161 Int'l Des: 2025-302 Owner: EUSPA Country: I-EU Constellation: Galileo
MEOCIRCULAR

Über GalileoSat-34

Beschreibung wird geladen...

Live-Position

3D-Globus wird geladen...

Nächste Überflüge

Höhenverlauf

Altitude vs Time

uPlot chart will show altitude changes over time

Zweizeiliger Elementsatz

1 67161U 25302B 25352.72389174 -.00000006 00000-0 00000-0 0 9998
2 67161 54.2288 107.2066 0004817 251.7259 108.1814 1.72971576 47
Epoch: 18. Dez. 2025 • Age: 28 hours

Aktueller Status

Höhe 22942.1 km
Geschwindigkeit 3.69 km/s
Subsatellitenpunkt 4.90°N, 61.64°E
Startdatum 17. Dez. 2025
Alter 2 days
Typ navigation

Technische Details

Klassifizierung Payload
Masse 733.00 kg
Trockenmasse 660.00 kg
Gesamtmasse 733.00 kg
Länge 2.70 m
Durchmesser 1.60 m
Spannweite 14.50 m
Form Box+2 pan
Hersteller OHB
Bus-Typ Galileo
Phasenstatus In Orbit
Besitzer/Staat EUSPA/I-EU

Große Konstellationen

Loading constellations...